Temp
29 28 28 26 26 23 19 18 20 21 22 24 25 26 25 27 27 27 27 25 25 26 25 25 24 24 23 23 22 21 21 21
30 30 29 29 25 25 20 23 23 21 21 22 25 25 25 25 27 27 26 25 24 25 25 25 25 24 23 23 22 22 21 21
28 28 27 27 26 20 19 19 20 21 21 21 23 24 25 24 28 28 27 26 24 25 26 25 25 24 23 23 22 21 21 21
26 27 26 27 26 22 22 24 18 19 22 24 23 23 25 28 29 29 28 27 26 25 26 26 25 24 23 23 22 22 22 21
25 25 26 30 27 21 18 17 18 21 23 24 22 23 25 27 29 28 29 26 25 26 26 26 25 24 24 23 22 22 22 21
23 25 25 27 27 24 22 21 20 20 26 28 25 22 23 26 29 29 28 26 26 27 26 26 25 25 24 23 22 22 22 21
24 26 26 28 28 27 26 24 26 26 24 27 24 23 23 26 26 26 26 26 26 27 27 26 25 25 24 23 23 22 22 21
27 27 28 29 25 25 25 25 27 25 26 20 24 25 24 25 25 25 27 27 27 27 27 26 25 25 24 22 21 21 21 20
25 26 26 25 26 23 23 22 23 22 23 21 22 23 23 26 24 24 24 24 24 24 25 23 22 23 23 22 21 21 19 19
21 23 26 24 24 24 23 23 22 23 23 23 23 23 24 25 26 26 26 26 26 26 25 24 22 21 21 20 19 19 17 16
21 20 24 25 24 26 24 24 23 22 23 24 24 24 21 24 25 25 25 26 26 27 26 25 24 22 21 20 19 17 18 20
18 24 23 22 25 26 23 21 24 24 22 23 25 20 19 22 23 24 25 26 27 27 26 23 22 21 21 20 18 20 19 19
18 21 21 22 25 25 26 22 24 25 25 25 21 23 22 21 23 24 24 24 25 25 23 22 21 19 19 19 18 19 17 16
18 20 24 25 26 26 22 24 25 25 24 23 23 22 21 22 22 22 22 22 22 21 20 19 18 18 17 17 16 15 15 17
20 20 21 24 25 26 26 25 25 24 24 24 23 20 21 20 21 21 21 21 21 20 18 17 17 17 16 15 16 16 15 15
19 21 21 24 24 24 25 24 23 24 24 23 22 20 20 21 21 21 21 21 21 19 18 18 18 17 17 16 16 15 15 15
17 20 23 23 23 24 22 23 22 21 22 21 21 20 20 21 20 20 19 19 18 17 16 16 16 15 15 14 14 14 15 15
18 21 21 23 23 23 22 21 21 22 20 20 20 20 20 19 19 18 18 18 17 17 16 15 14 14 14 14 14 14 14 14
22 24 24 24 23 23 22 21 21 21 21 21 20 19 19 18 18 17 17 16 16 15 15 14 14 14 15 15 15 15 14 14
Height
1466 1468 1473 1495 1506 1501 1532 1540 1542 1528 1507 1482 1472 1472 1473 1473 1473 1473 1475 1477 1482 1489 1496 1503 1508 1512 1516 1520 1523 1526 1528 1531
1466 1464 1470 1474 1482 1510 1525 1544 1546 1534 1525 1510 1481 1475 1471 1472 1472 1472 1474 1478 1483 1486 1493 1498 1503 1508 1513 1516 1518 1521 1524 1528
1467 1473 1478 1481 1490 1503 1514 1527 1545 1546 1528 1478 1475 1471 1470 1469 1470 1471 1473 1476 1481 1485 1490 1495 1499 1503 1508 1510 1513 1515 1517 1522
1484 1464 1465 1468 1477 1490 1517 1520 1531 1532 1516 1465 1465 1463 1464 1463 1468 1469 1471 1473 1478 1484 1487 1491 1496 1500 1505 1508 1510 1511 1513 1514
1495 1481 1468 1468 1472 1484 1496 1509 1526 1529 1511 1464 1463 1463 1461 1461 1464 1468 1470 1474 1479 1484 1486 1489 1492 1497 1503 1505 1507 1509 1510 1512
1509 1493 1480 1480 1473 1479 1485 1512 1514 1511 1484 1465 1463 1463 1459 1460 1461 1465 1469 1473 1477 1481 1481 1486 1490 1494 1496 1499 1503 1507 1509 1511
1476 1472 1474 1470 1471 1472 1478 1483 1490 1484 1485 1469 1465 1463 1463 1463 1464 1466 1470 1471 1474 1476 1478 1482 1488 1490 1493 1495 1499 1503 1506 1507
1478 1472 1468 1471 1472 1472 1474 1476 1472 1478 1479 1472 1466 1462 1462 1462 1464 1466 1468 1470 1474 1476 1478 1479 1483 1485 1493 1503 1508 1512 1512 1511
1492 1475 1474 1492 1478 1478 1478 1478 1479 1493 1487 1477 1471 1468 1467 1467 1470 1473 1475 1475 1478 1480 1480 1484 1486 1489 1492 1494 1499 1501 1507 1510
1496 1486 1505 1484 1471 1472 1478 1482 1481 1481 1480 1480 1478 1477 1474 1474 1474 1476 1479 1480 1479 1478 1478 1480 1485 1487 1487 1488 1489 1491 1498 1508
1498 1507 1493 1483 1476 1473 1477 1487 1480 1481 1480 1478 1479 1480 1482 1482 1480 1480 1480 1479 1476 1473 1472 1472 1473 1477 1481 1482 1482 1484 1476 1493
1498 1495 1509 1482 1468 1466 1469 1501 1480 1478 1478 1477 1477 1491 1487 1484 1480 1478 1478 1476 1475 1473 1472 1470 1468 1469 1472 1474 1473 1472 1484 1480
1494 1494 1488 1469 1467 1469 1490 1498 1480 1480 1479 1479 1483 1485 1485 1484 1482 1481 1480 1479 1477 1474 1472 1470 1471 1472 1474 1475 1480 1481 1482 1481
1490 1496 1491 1461 1464 1472 1474 1475 1478 1479 1481 1482 1482 1483 1484 1484 1484 1483 1480 1478 1476 1474 1471 1472 1473 1475 1479 1479 1480 1479 1478 1478
1472 1477 1460 1460 1461 1465 1470 1473 1477 1479 1481 1481 1481 1483 1485 1485 1483 1482 1479 1478 1476 1474 1476 1476 1477 1478 1478 1480 1481 1478 1479 1477
1464 1464 1463 1463 1466 1468 1471 1473 1477 1479 1480 1480 1481 1484 1486 1486 1484 1482 1480 1478 1476 1476 1476 1478 1477 1479 1480 1481 1481 1482 1480 1481
1466 1465 1465 1468 1469 1471 1473 1475 1477 1479 1479 1481 1483 1485 1485 1485 1484 1483 1481 1481 1480 1481 1479 1479 1479 1480 1481 1481 1481 1481 1482 1484
1466 1456 1460 1465 1469 1471 1472 1475 1478 1477 1480 1483 1484 1484 1484 1484 1484 1484 1484 1483 1482 1481 1480 1481 1482 1480 1479 1479 1479 1481 1482 1485
1448 1456 1460 1464 1468 1470 1472 1476 1478 1478 1481 1482 1484 1484 1484 1484 1484 1485 1484 1484 1483 1484 1485 1484 1484 1482 1481 1480 1481 1481 1483 1484
Wind_Speed
5 6 10 4 3 5 7 4 2 3 7 10 3 5 2 3 7 4 22 31 37 40 39 37 36 34 33 26 24 22 17 22
4 5 3 11 9 2 3 3 4 4 5 6 4 6 5 8 9 5 9 21 30 38 38 36 35 33 31 26 22 21 19 24
3 1 8 2 0 7 6 4 6 2 6 8 10 9 9 10 14 12 15 20 28 34 36 35 34 35 32 28 27 25 22 24
10 2 4 5 3 6 5 4 0 3 6 4 8 10 16 22 19 16 16 24 28 34 36 35 35 34 31 28 27 23 24 28
10 7 6 1 3 5 6 4 6 6 6 3 5 8 19 24 20 19 15 21 27 32 35 35 36 35 32 29 28 24 26 29
7 6 3 5 3 4 5 4 4 6 4 4 5 10 13 24 27 23 20 22 28 33 36 36 36 35 34 30 29 27 26 29
5 3 4 4 3 5 6 5 5 4 6 3 7 5 8 22 20 22 20 25 31 37 38 39 38 37 35 33 32 31 29 32
3 4 1 3 5 7 4 2 3 3 1 5 8 5 3 7 16 20 27 31 34 38 38 40 40 38 34 31 30 28 28 31
5 3 5 4 3 6 4 5 3 5 4 6 10 16 13 2 7 4 10 18 25 33 38 34 35 37 34 30 32 31 30 34
3 3 3 5 4 6 12 4 6 6 4 6 12 19 22 22 16 5 3 8 12 23 31 35 29 30 31 28 25 25 15 6
5 4 2 3 5 3 5 3 5 6 6 11 5 16 17 13 14 12 10 11 14 14 15 28 33 33 33 32 30 19 18 13
3 5 7 8 3 7 5 2 3 9 8 8 17 5 2 5 8 11 14 17 21 18 15 19 27 32 36 37 29 22 38 41
3 3 5 5 3 9 3 7 6 11 11 11 5 1 1 3 6 9 10 13 14 14 11 14 22 24 29 32 21 18 24 25
3 4 2 6 2 4 8 13 13 11 11 14 12 11 10 9 11 11 11 12 13 10 1 12 18 22 21 14 10 7 7 16
5 5 4 5 7 25 21 17 11 14 11 9 11 14 12 12 10 11 11 10 9 3 4 7 8 8 6 7 7 6 4 4
4 4 3 18 20 16 15 20 18 13 12 12 14 16 15 8 8 12 11 11 9 10 14 9 11 9 9 7 7 6 3 5
3 4 12 11 17 20 22 21 20 19 18 16 14 15 12 13 12 12 14 15 13 9 10 8 4 2 4 4 8 3 3 5
5 15 7 12 16 17 22 19 17 16 19 16 12 14 13 12 12 16 14 8 7 8 9 8 8 9 6 8 9 8 6 2
11 16 16 17 15 16 21 20 18 17 14 15 15 12 13 13 14 16 10 8 9 8 9 11 10 11 10 10 9 9 6 11
Wind_Direction
176 163 135 224 178 211 100 12 47 263 293 304 296 301 297 263 294 177 212 215 213 210 212 215 224 223 217 220 222 224 239 218
268 71 104 163 156 101 10 134 266 285 284 238 290 248 226 234 243 178 196 200 209 208 211 215 220 218 215 219 221 223 228 217
6 181 178 112 111 58 116 123 166 215 265 217 217 218 215 231 213 201 206 209 212 211 210 214 215 212 216 216 216 217 217 214
233 258 238 142 145 138 123 222 151 148 273 278 213 216 219 229 204 209 219 218 216 214 212 213 216 215 215 218 216 216 213 212
337 354 359 43 157 111 105 90 190 139 260 275 246 241 226 225 206 202 224 215 214 218 217 217 219 217 217 220 219 218 213 213
190 205 188 309 245 142 112 116 172 222 267 267 224 223 234 226 225 224 216 220 216 220 221 219 219 219 218 219 220 220 218 215
186 180 210 234 320 158 189 184 150 279 218 287 291 249 268 247 234 223 214 223 220 220 221 219 219 222 224 225 221 220 221 219
183 207 107 16 11 69 43 120 282 30 351 325 326 117 64 236 210 213 221 228 225 224 226 227 223 224 225 226 226 230 234 226
234 303 69 31 323 96 90 50 71 50 321 314 43 47 36 203 190 214 240 233 242 237 238 237 228 226 223 223 225 222 230 231
168 47 194 252 93 122 106 84 92 84 49 64 76 67 63 64 79 86 282 333 288 267 255 246 239 229 222 214 207 209 194 248
130 123 58 320 244 222 133 14 350 85 47 32 119 71 50 54 56 49 35 7 351 328 280 249 242 231 222 212 205 191 180 266
118 145 183 217 256 186 127 13 340 72 50 37 50 67 276 45 37 30 13 4 349 337 305 259 230 223 220 210 201 225 270 258
138 125 287 235 188 167 116 221 140 93 76 60 70 105 108 99 47 35 16 5 4 351 310 232 220 208 217 212 252 262 248 262
97 94 194 199 66 169 165 128 130 97 77 76 93 116 136 116 88 66 43 27 19 2 266 191 196 204 212 247 271 277 322 315
160 201 266 165 141 132 134 135 121 105 91 72 92 123 126 101 73 62 39 33 28 20 182 225 262 275 295 111 29 22 41 17
94 325 46 121 124 118 123 112 110 98 82 69 108 122 117 92 74 68 64 62 50 71 89 87 103 94 112 26 24 14 43 105
78 78 102 111 109 111 115 117 113 102 90 92 118 132 118 110 101 99 102 90 88 89 77 84 117 39 289 333 355 348 101 125
198 176 140 149 115 121 129 121 112 108 106 105 118 135 139 134 120 124 114 95 93 82 82 86 86 65 67 88 85 83 92 78
134 145 129 130 128 140 133 130 125 115 112 119 123 141 154 142 135 144 141 127 108 100 94 86 88 88 88 86 86 86 89 96